Location: Kernascl�den
(48.0062°N, 3.3198°W)
Time: 21:43:49
(UTC+00:00)

Cosmos 1340 - Pass Details

Date: 21 January 2021
Orbit: 501 x 503 km, 81.2° (Epoch: 03 March)

Event Time Altitude Azimuth Distance (km) Brightness Sun altitude
Rises 18:44:07 0° 168° (SSE) 2,584 6.2 -17.7°
Reaches altitude 10° 18:46:21 10° 159° (SSE) 1,705 5.2 -18.1°
Enters shadow 18:47:43 20° 146° (SSE) 1,223 4.3 -18.3°
